Flag for Pakistan Weather past 2 weeks in Sahiwal, Pakistan

Now
64 °F

Haze.


Feels Like: 64 °F
Forecast: 54 / 64 °F
Wind: 6 mph from Southeast

Location: Lahore Airport

Current Time: Feb 1, 2015 at 12:52:12 PM

Latest Report: Feb 1, 2015 at 12:30 PM


Visibility: 4 mi

Pressure: 30.07 "Hg

Humidity: 46%

Dew point: 43 °F

Location of SahiwalLocation

Historic Weather in Sahiwal — Graph

°F

Sahiwal temperature yesterday

Maximum temperature yesterday: 68 °F (at 1:55 PM)
Minimum temperature yesterday: 41 °F (at 5:55 AM)
Average temperature yesterday: 56 °F

Past Weeks' High & Low Weather Summary

 TemperatureHumidityPressure
High70 °F (Jan 17, 1:55 PM)100% (Jan 20, 7:55 AM)30.24 "Hg (Jan 20, 7:55 AM)
Low41 °F (Jan 27, 6:25 AM)20% (Jan 30, 3:55 PM)30.01 "Hg (Jan 28, 3:00 PM)
Average54 °F70%30.12 "Hg
* Reported Jan 17 11:25 AM — Feb 1 11:55 AM, Sahiwal, Weather by CustomWeather, © 2014

Note: Actual official high and low records may vary slightly from our data, if they occured in-between our weather recording intervals... More about our weather records

Advertising

Sahiwal weather history for previous 24 hours

 ConditionsComfort  
Time TempWeatherWind HumidityBarometerVisibility
11:55 AM
Feb 1
64 °FHaze.6 mph46%30.09 "Hg3 mi
11:25 AM63 °FHaze.6 mph49%30.09 "Hg3 mi
11:00 AM61 °FPassing clouds.6 mph52%30.09 "Hg3 mi
10:25 AM59 °FScattered clouds.6 mph55%30.09 "Hg2 mi
9:55 AM57 °FScattered clouds.6 mph59%30.09 "Hg2 mi
9:30 AM52 °FScattered clouds.6 mph72%30.09 "Hg2 mi
8:55 AM52 °FScattered clouds.3 mph72%30.09 "Hg2 mi
8:25 AM48 °FScattered clouds.3 mph71%30.09 "Hg2 mi
7:55 AM46 °FScattered clouds.No wind76%30.09 "Hg2 mi
7:25 AM45 °FFog.No wind87%30.07 "Hg1 mi
6:55 AM45 °FScattered clouds.No wind87%30.07 "Hg2 mi
6:25 AM45 °FPassing clouds.No wind87%30.07 "Hg2 mi
5:00 AM48 °FPassing clouds.3 mph82%30.04 "Hg2 mi
4:25 AM48 °FPassing clouds.6 mph82%30.04 "Hg2 mi
3:55 AM48 °FPassing clouds.5 mph82%30.04 "Hg2 mi
3:25 AM50 °FPassing clouds.3 mph76%30.04 "Hg2 mi
2:55 AM50 °FPassing clouds.3 mph76%30.04 "Hg2 mi
2:25 AM50 °FPassing clouds.9 mph76%30.01 "Hg2 mi
1:55 AM50 °FPassing clouds.7 mph76%N/A2 mi
12:55 AM54 °FClear.3 mph63%30.07 "Hg3 mi
11:55 PM
Jan 31
54 °FClear.No wind63%30.07 "Hg3 mi
11:25 PM55 °FClear.No wind59%30.07 "Hg3 mi
10:55 PM55 °FClear.No wind59%30.07 "Hg3 mi
10:25 PM55 °FClear.No wind63%30.04 "Hg3 mi
9:55 PM57 °FClear.No wind51%30.04 "Hg3 mi
9:25 PM57 °FClear.No wind51%30.04 "Hg3 mi
8:55 PM57 °FClear.No wind51%30.04 "Hg3 mi
8:25 PM61 °FHaze.No wind45%30.04 "Hg3 mi
7:55 PM59 °FHaze.3 mph48%30.04 "Hg3 mi
7:25 PM61 °FHaze.3 mph42%30.01 "Hg3 mi
6:55 PM61 °FHaze.3 mph42%30.01 "Hg3 mi
5:55 PM64 °FClear.3 mph34%30.01 "Hg4 mi
5:25 PM66 °FClear.5 mph30%30.01 "Hg4 mi
3:25 PM68 °FClear.5 mph24%30.01 "Hg4 mi
2:55 PM68 °FClear.6 mph24%30.01 "Hg4 mi
2:25 PM68 °FClear.7 mph24%30.04 "Hg4 mi
1:55 PM68 °FClear.7 mph24%30.04 "Hg4 mi
1:25 PM66 °FClear.7 mph22%30.04 "Hg4 mi
12:55 PM66 °FClear.7 mph22%30.07 "Hg4 mi
12:25 PM64 °FHaze.7 mph26%30.09 "Hg3 mi
Weather by CustomWeather, © 2014

See weather overviewHow to use our weather pages